GW1018 Weather Reports


time (UTC)temp
F
wind
direction
speed
knots
gust
knots
rain 1hr
in
rain 24hr
in
rain mn
in
humidity
%
barometer
mb
20260505121157 36 359 7.0 7.0 0.03 0.00 0.04 98 1012.9
20260505120156 37 0 7.0 7.0 0.02 0.00 0.03 98 1012.5
20260505115656 37 1 7.0 7.0 0.01 0.00 0.02 98 1012.5
20260505113655 38 9 8.7 8.7 0.00 0.00 0.00 97 1012.2
20260505112657 39 3 8.7 8.7 0.00 0.00 0.00 96 1012.2
20260505112156 39 0 9.6 9.6 0.00 0.00 0.00 95 1012.2
20260505111156 39 3 9.6 9.6 0.00 0.00 0.00 95 1011.9
20260505110156 40 1 8.7 8.7 0.00 0.00 0.00 96 1011.9
20260505102156 41 357 7.0 7.0 0.00 0.00 0.00 97 1010.8
20260505101656 41 4 7.0 7.0 0.00 0.00 0.00 97 1010.8
20260505100656 42 1 6.1 6.1 0.00 0.00 0.00 95 1010.5
20260505095655 42 0 5.2 5.2 0.00 0.00 0.00 94 1010.8
20260505093156 43 350 4.3 4.3 0.00 0.00 0.00 95 1010.8
20260505091155 46 14 2.6 2.6 0.00 0.00 0.00 97 1010.8
20260505090656 46 6 2.6 2.6 0.00 0.00 0.00 97 1010.8
20260505085656 46 4 2.6 2.6 0.00 0.00 0.00 97 1010.8
20260505084656 45 10 1.7 1.7 0.00 0.00 0.00 97 1010.8
20260505084155 45 13 0.9 0.9 0.00 0.00 0.00 97 1010.8
20260505082655 45 20 0.9 0.9 0.00 0.00 0.00 97 1010.8
20260505081656 46 356 0.9 0.9 0.00 0.00 0.00 97 1010.8
20260505080657 46 314 0.9 0.9 0.00 0.00 0.00 97 1010.8
20260505080156 46 67 0.9 0.9 0.00 0.00 0.00 97 1010.8
20260505075156 46 166 1.7 1.7 0.00 0.00 0.00 97 1010.8
20260505074156 46 173 1.7 1.7 0.00 0.00 0.00 97 1011.2
20260505073155 46 156 1.7 1.7 0.00 0.00 0.00 97 1011.2
20260505072656 46 160 1.7 1.7 0.00 0.00 0.00 97 1011.2
20260505071655 46 326 2.6 2.6 0.00 0.00 0.00 96 1011.5
20260505071155 46 186 2.6 2.6 0.00 0.00 0.00 96 1011.5
20260505070155 46 162 2.6 2.6 0.00 0.00 0.00 96 1011.5
20260505065157 46 145 2.6 2.6 0.00 0.00 0.00 95 1011.5
20260505063156 46 116 2.6 2.6 0.00 0.00 0.00 94 1011.5
20260505062656 46 135 2.6 2.6 0.00 0.00 0.00 94 1011.5
20260505062155 46 150 2.6 2.6 0.00 0.00 0.00 94 1011.5
20260505061155 46 195 1.7 1.7 0.00 0.00 0.14 94 1011.5
20260505060156 46 184 1.7 1.7 0.00 0.00 0.14 94 1011.5
20260505055155 46 139 0.9 0.9 0.00 0.00 0.14 94 1011.9
20260505054156 46 134 0.9 0.9 0.00 0.00 0.14 94 1011.5
20260505053655 46 290 0.9 0.9 0.00 0.00 0.14 94 1011.5
20260505052655 46 282 0.9 0.9 0.01 0.00 0.15 93 1011.5
20260505051655 46 212 0.9 0.9 0.02 0.00 0.15 93 1011.9
20260505050655 46 329 1.7 1.7 0.03 0.00 0.15 93 1011.9
20260505041656 46 32 4.3 4.3 0.11 0.00 0.13 91 1012.2
20260505040155 47 5 4.3 4.3 0.09 0.00 0.12 90 1011.9
20260505034155 48 352 4.3 4.3 0.05 0.00 0.08 87 1011.9
20260505033155 48 352 4.3 4.3 0.03 0.00 0.06 83 1011.9
20260505025655 52 322 0.9 0.9 0.00 0.00 0.02 68 1010.8
20260505025155 52 349 0.9 0.9 0.00 0.00 0.02 65 1010.8
20260505024155 52 222 0.9 0.9 0.00 0.00 0.02 64 1010.5
20260505023155 51 85 0.9 0.9 0.00 0.00 0.02 67 1010.2
20260505022655 52 24 0.9 0.9 0.00 0.00 0.02 67 1010.5
20260505021655 51 100 0.9 0.9 0.00 0.00 0.02 67 1010.2
20260505020155 52 4 0.9 0.9 0.00 0.00 0.02 69 1010.2
20260505015655 52 346 1.7 1.7 0.01 0.00 0.02 70 1010.5
20260505015155 52 4 1.7 1.7 0.01 0.00 0.02 69 1010.2
20260505014155 52 0 1.7 1.7 0.01 0.00 0.02 70 1010.2
20260505013655 52 1 2.6 2.6 0.01 0.00 0.02 68 1010.2
20260505012655 52 349 2.6 2.6 0.01 0.00 0.01 66 1010.2
20260505011655 53 351 3.5 3.5 0.01 0.00 0.01 67 1010.2
20260505011155 53 357 3.5 3.5 0.01 0.00 0.02 67 1010.2
20260505010655 53 11 3.5 3.5 0.01 0.00 0.02 67 1010.2
20260505010155 53 8 3.5 3.5 0.01 0.00 0.01 66 1010.2
20260505005655 53 2 3.5 3.5 0.01 0.00 0.01 65 1010.2
20260505004655 53 315 5.2 5.2 0.01 0.00 0.01 66 1010.2
20260505003655 55 335 5.2 5.2 0.01 0.00 0.01 61 1010.2
20260505003156 56 333 5.2 5.2 0.00 0.00 0.01 57 1010.2
20260505002155 57 339 6.1 6.1 0.00 0.00 0.00 51 1010.2
20260505001154 57 359 6.1 6.1 0.00 0.00 0.00 49 1009.5
20260505000655 57 358 6.1 6.1 0.00 0.00 0.00 51 1009.1
20260505000154 57 344 6.1 6.1 0.00 0.00 0.00 49 1009.1
20260504235155 57 347 6.1 6.1 0.00 0.00 0.00 48 1008.8
20260504234154 58 354 7.0 7.0 0.00 0.00 0.00 49 1008.8
20260504232654 59 354 7.8 7.8 0.00 0.00 0.00 44 1008.5
20260504232154 59 356 7.8 7.8 0.00 0.00 0.00 41 1008.5
20260504230655 59 357 8.7 8.7 0.00 0.00 0.00 41 1008.5
20260504230154 59 355 8.7 8.7 0.00 0.00 0.00 41 1008.5
20260504225654 60 354 7.8 7.8 0.00 0.00 0.00 41 1008.5
20260504223654 61 354 5.2 5.2 0.00 0.00 0.00 39 1008.5
20260504222654 61 358 6.1 6.1 0.00 0.00 0.00 38 1008.1
20260504221655 65 38 3.5 3.5 0.00 0.00 0.00 29 1007.8
20260504221154 65 38 3.5 3.5 0.00 0.00 0.00 29 1007.8
20260504220654 65 32 3.5 3.5 0.00 0.00 0.00 29 1007.8
20260504215654 65 50 3.5 3.5 0.00 0.00 0.00 29 1007.8
20260504214655 64 354 3.5 3.5 0.00 0.00 0.00 31 1007.8
20260504214154 64 48 4.3 4.3 0.00 0.00 0.00 31 1007.8
20260504213654 64 27 4.3 4.3 0.00 0.00 0.00 31 1007.8
20260504212654 64 63 5.2 5.2 0.00 0.00 0.00 32 1008.1
20260504211655 64 26 5.2 5.2 0.00 0.00 0.00 32 1008.1
20260504211154 64 24 6.1 6.1 0.00 0.00 0.00 32 1008.1
20260504210154 65 357 7.0 7.0 0.00 0.00 0.00 33 1008.1
20260504205654 65 357 7.0 7.0 0.00 0.00 0.00 33 1008.1
20260504204655 64 342 7.0 7.0 0.00 0.00 0.00 34 1008.5
20260504203654 63 14 7.8 7.8 0.00 0.00 0.00 34 1008.8
20260504203154 63 0 7.0 7.0 0.00 0.00 0.00 34 1008.8
20260504202654 63 359 7.0 7.0 0.00 0.00 0.00 34 1008.8
20260504201655 63 350 7.0 7.0 0.00 0.00 0.00 34 1009.1
20260504200654 63 350 7.0 7.0 0.00 0.00 0.00 35 1008.8
20260504194655 63 8 7.0 7.0 0.00 0.00 0.00 34 1008.8
20260504194155 63 6 7.8 7.8 0.00 0.00 0.00 35 1008.8
20260504193654 63 346 7.8 7.8 0.00 0.00 0.00 34 1008.8
20260504193154 62 347 7.8 7.8 0.00 0.00 0.00 35 1008.8
20260504191654 60 359 7.8 7.8 0.00 0.00 0.00 37 1008.5
20260504190154 61 359 5.2 5.2 0.00 0.00 0.00 36 1008.8
20260504185154 63 235 5.2 5.2 0.00 0.00 0.00 35 1009.5
20260504184655 64 197 4.3 4.3 0.00 0.00 0.00 31 1009.1
20260504183654 64 173 4.3 4.3 0.00 0.00 0.00 29 1009.1
20260504182654 65 139 3.5 3.5 0.00 0.00 0.00 26 1008.5
20260504182154 65 139 3.5 3.5 0.00 0.00 0.00 26 1008.5
20260504180656 66 98 3.5 3.5 0.00 0.00 0.00 25 1008.5
20260504180154 66 355 3.5 3.5 0.00 0.00 0.00 26 1008.5
20260504175655 66 5 3.5 3.5 0.00 0.00 0.00 26 1008.5
20260504175154 66 5 3.5 3.5 0.00 0.00 0.00 26 1008.5
20260504173155 67 46 3.5 3.5 0.00 0.00 0.00 26 1008.5
20260504172655 67 36 3.5 3.5 0.00 0.00 0.00 26 1008.5
20260504171655 68 341 3.5 3.5 0.00 0.00 0.00 27 1008.8
20260504171154 67 57 3.5 3.5 0.00 0.00 0.00 26 1008.8
20260504160154 65 242 2.6 2.6 0.00 0.00 0.00 28 1009.5
20260504150654 58 135 2.6 2.6 0.00 0.00 0.00 35 1010.2
20260504141154 53 181 0.9 0.9 0.00 0.00 0.00 42 1010.2
20260504130654 49 75 0.9 0.9 0.00 0.00 0.00 44 1009.5
20260504130153 49 27 0.0 0.0 0.00 0.00 0.00 47 1009.5